KG7HVA-13 Weather Reports


time (UTC)temp
C
wind
direction
speed
KPH
gust
KPH
rain 1hr
cm
rain 24hr
cm
rain mn
cm
humidity
%
barometer
mb
20260503215004 33 248 0.0 0.0 0.00 0.00 0.00 34 1012.1
20260503214504 33 248 0.0 0.0 0.00 0.00 0.00 33 1012.1
20260503214004 33 248 0.0 0.0 0.00 0.00 0.00 33 1012.1
20260503213504 33 229 0.0 0.0 0.00 0.00 0.00 33 1012.1
20260503213004 34 248 0.0 0.0 0.00 0.00 0.00 33 1012.5
20260503212504 34 256 0.0 0.0 0.00 0.00 0.00 33 1012.5
20260503212003 34 248 0.0 0.0 0.00 0.00 0.00 33 1012.5
20260503211504 35 248 0.0 0.0 0.00 0.00 0.00 34 1012.5
20260503211004 35 248 0.0 0.0 0.00 0.00 0.00 34 1012.7
20260503210503 35 248 0.0 0.0 0.00 0.00 0.00 33 1012.8
20260503210005 35 248 0.0 0.0 0.00 0.00 0.00 34 1012.8
20260503205504 35 280 0.0 0.0 0.00 0.00 0.00 34 1012.8
20260503205004 35 225 0.0 0.0 0.00 0.00 0.00 34 1012.8
20260503204504 35 225 0.0 0.0 0.00 0.00 0.00 36 1012.8
20260503204004 35 292 0.0 0.0 0.00 0.00 0.00 35 1013.2
20260503202004 35 270 0.0 0.0 0.00 0.00 0.00 37 1013.2
20260503201504 35 270 0.0 0.0 0.00 0.00 0.00 37 1013.5
20260503201003 35 270 0.0 0.0 0.00 0.00 0.00 37 1013.5
20260503200504 35 270 0.0 0.0 0.00 0.00 0.00 37 1013.5
20260503200003 34 270 0.0 0.0 0.00 0.00 0.00 37 1013.5
20260503195504 34 275 0.0 0.0 0.00 0.00 0.00 38 1013.7
20260503195005 34 292 0.0 0.0 0.00 0.00 0.00 37 1013.8
20260503194004 33 270 0.0 0.0 0.00 0.00 0.00 39 1013.8
20260503193504 33 270 0.0 0.0 0.00 0.00 0.00 39 1013.8
20260503193004 33 270 0.0 0.0 0.00 0.00 0.00 39 1013.8
20260503192505 33 270 0.0 0.0 0.00 0.00 0.00 39 1013.8
20260503192004 33 270 0.0 0.0 0.00 0.00 0.00 39 1014.2
20260503191004 32 270 0.0 0.0 0.00 0.00 0.00 40 1014.2
20260503190504 32 270 0.0 0.0 0.00 0.00 0.00 40 1014.5
20260503190004 32 248 0.0 0.0 0.00 0.00 0.00 40 1014.5
20260503185503 32 270 0.0 0.0 0.00 0.00 0.00 41 1014.5
20260503185004 32 270 0.0 0.0 0.00 0.00 0.00 41 1014.5
20260503184504 32 270 0.0 0.0 0.00 0.00 0.00 41 1014.5
20260503184004 32 270 0.0 0.0 0.00 0.00 0.00 42 1014.8
20260503183504 31 270 0.0 0.0 0.00 0.00 0.00 42 1014.9
20260503182504 31 248 0.0 0.0 0.00 0.00 0.00 43 1014.9
20260503181505 31 248 0.0 0.0 0.00 0.00 0.00 43 1014.9
20260503181004 30 248 0.0 0.0 0.00 0.00 0.00 44 1014.9
20260503180504 30 248 0.0 0.0 0.00 0.00 0.00 44 1014.9
20260503180004 30 248 0.0 0.0 0.00 0.00 0.00 45 1014.9
20260503175504 30 270 0.0 0.0 0.00 0.00 0.00 45 1015.2
20260503175004 29 270 0.0 0.0 0.00 0.00 0.00 46 1015.2
20260503174504 29 270 0.0 0.0 0.00 0.00 0.00 46 1015.2
20260503174004 28 270 0.0 0.0 0.00 0.00 0.00 46 1015.2
20260503173504 28 270 0.0 0.0 0.00 0.00 0.00 46 1015.2
20260503173004 28 270 0.0 0.0 0.00 0.00 0.00 47 1015.2
20260503172504 28 270 0.0 0.0 0.00 0.00 0.00 48 1015.2
20260503171504 27 270 0.0 0.0 0.00 0.00 0.00 49 1015.2
20260503170504 26 270 0.0 0.0 0.00 0.00 0.00 50 1015.5
20260503150503 17 270 0.0 0.0 0.00 0.00 0.00 72 1015.9
20260503131004 13 270 0.0 0.0 0.00 0.00 0.00 75 1015.5
20260503130504 13 270 0.0 0.0 0.00 0.00 0.00 75 1015.5
20260503081503 16 270 0.0 0.0 0.00 0.00 0.00 69 1015.9
20260503072005 16 270 0.0 0.0 0.00 0.00 0.00 67 1015.9
20260503071504 16 270 0.0 0.0 0.00 0.00 0.00 67 1015.9
20260503071005 16 270 0.0 0.0 0.00 0.00 0.00 67 1015.9
20260503070504 16 270 0.0 0.0 0.00 0.00 0.00 67 1015.9
20260503055004 18 202 0.0 0.0 0.00 0.00 0.00 64 1015.9
20260503054504 18 202 0.0 0.0 0.00 0.00 0.00 64 1015.9
20260503054004 18 202 0.0 0.0 0.00 0.00 0.00 64 1015.9
20260503053004 18 151 0.0 0.0 0.00 0.00 0.00 64 1015.9
20260503052504 18 135 0.0 0.0 0.00 0.00 0.00 64 1016.1
20260503052004 18 135 0.0 0.0 0.00 0.00 0.00 63 1016.2
20260503051504 18 135 0.0 0.0 0.00 0.00 0.00 63 1016.2
20260503051004 18 135 0.0 0.0 0.00 0.00 0.00 63 1016.5
20260503050504 18 135 0.0 0.0 0.00 0.00 0.00 63 1016.2
20260503050004 18 22 0.0 0.0 0.00 0.00 0.00 63 1016.4
20260503045504 19 22 0.0 0.0 0.00 0.00 0.00 63 1016.4
20260503044504 19 0 0.0 0.0 0.00 0.00 0.00 64 1016.2
20260503044004 19 0 0.0 0.0 0.00 0.00 0.00 63 1015.9
20260503043504 20 0 0.0 0.0 0.00 0.00 0.00 64 1015.9
20260503043004 20 0 0.0 0.0 0.00 0.00 0.00 65 1015.9
20260503042004 20 22 0.0 0.0 0.00 0.00 0.00 66 1016.2
20260503041504 20 22 0.0 0.0 0.00 0.00 0.00 64 1016.1
20260503040504 20 22 0.0 0.0 0.00 0.00 0.00 63 1015.9
20260503040004 20 22 0.0 0.0 0.00 0.00 0.00 62 1015.9
20260503035504 20 22 0.0 0.0 0.00 0.00 0.00 64 1015.5
20260503035004 20 22 0.0 0.0 0.00 0.00 0.00 64 1015.5
20260503034503 20 22 0.0 0.0 0.00 0.00 0.00 61 1015.5
20260503034004 20 22 0.0 0.0 0.00 0.00 0.00 59 1015.5
20260503033004 20 338 0.0 0.0 0.00 0.00 0.00 57 1015.2
20260503032504 21 338 0.0 0.0 0.00 0.00 0.00 57 1015.2
20260503032003 21 292 0.0 0.0 0.00 0.00 0.00 57 1015.2
20260503031504 21 292 0.0 0.0 0.00 0.00 0.00 57 1015.2
20260503031004 21 270 0.0 0.0 0.00 0.00 0.00 56 1015.2
20260503030503 21 270 0.0 0.0 0.00 0.00 0.00 56 1015.2
20260503030004 21 45 0.0 0.0 0.00 0.00 0.00 56 1014.9
20260503025504 22 22 0.0 0.0 0.00 0.00 0.00 55 1014.9
20260503025005 22 68 0.0 0.0 0.00 0.00 0.00 55 1015.2
20260503024504 22 68 0.0 0.0 0.00 0.00 0.00 55 1014.9
20260503023505 22 90 0.0 0.0 0.00 0.00 0.00 55 1014.9
20260503023004 23 91 0.0 0.0 0.00 0.00 0.00 56 1014.9
20260503022003 23 90 0.0 0.0 0.00 0.00 0.00 56 1014.5
20260503020504 23 135 0.0 0.0 0.00 0.00 0.00 55 1014.5
20260503020004 23 135 0.0 0.0 0.00 0.00 0.00 55 1014.5
20260503015504 22 294 0.0 0.0 0.00 0.00 0.00 56 1014.5
20260503014504 22 294 0.0 0.0 0.00 0.00 0.00 56 1014.2
20260503014004 22 294 0.0 0.0 0.00 0.00 0.00 56 1014.2
20260503013504 22 294 0.0 0.0 0.00 0.00 0.00 56 1014.2
20260503013004 22 294 0.0 0.0 0.00 0.00 0.00 56 1014.2
20260503012504 22 294 0.0 0.0 0.00 0.00 0.00 56 1014.2
20260503012004 22 294 0.0 0.0 0.00 0.00 0.00 56 1014.2
20260503011503 22 293 0.0 0.0 0.00 0.00 0.00 56 1014.2
20260503011004 22 292 0.0 0.0 0.00 0.00 0.00 56 1014.2
20260503010504 22 292 0.0 0.0 0.00 0.00 0.00 56 1014.2
20260503010004 22 292 0.0 0.0 0.00 0.00 0.00 56 1014.2
20260503005504 22 292 0.0 0.0 0.00 0.00 0.00 56 1014.5
20260503004504 22 292 0.0 0.0 0.00 0.00 0.00 56 1014.5
20260503004004 22 270 0.0 0.0 0.00 0.00 0.00 56 1014.5
20260503003504 22 270 0.0 0.0 0.00 0.00 0.00 56 1014.5
20260503003004 22 278 0.0 0.0 0.00 0.00 0.00 55 1014.5
20260503002504 22 270 0.0 0.0 0.00 0.00 0.00 55 1014.5
20260503002004 22 292 0.0 0.0 0.00 0.00 0.00 55 1014.7
20260503001504 22 278 0.0 0.0 0.00 0.00 0.00 55 1014.5
20260503001004 22 270 0.0 0.0 0.00 0.00 0.00 55 1014.7
20260503000504 22 270 0.0 0.0 0.00 0.00 0.00 55 1014.9
20260503000004 22 270 0.0 0.0 0.00 0.00 0.00 55 1014.9
20260502235503 21 270 0.0 0.0 0.00 0.00 0.00 55 1014.9
20260502235004 21 270 0.0 0.0 0.00 0.00 0.00 55 1014.9
20260502234504 21 270 0.0 0.0 0.00 0.00 0.00 55 1014.9
20260502234003 21 270 0.0 0.0 0.00 0.00 0.00 55 1014.9
20260502233504 21 270 0.0 0.0 0.00 0.00 0.00 55 1015.2
20260502232504 21 270 0.0 0.0 0.00 0.00 0.00 55 1015.2
20260502232005 21 270 0.0 0.0 0.00 0.00 0.00 55 1015.2
20260502231504 21 270 0.0 0.0 0.00 0.00 0.00 55 1015.2
20260502231004 21 270 0.0 0.0 0.00 0.00 0.00 55 1015.5
20260502230504 21 270 0.0 0.0 0.00 0.00 0.00 55 1015.5
20260502224504 21 225 0.0 0.0 0.00 0.00 0.00 55 1015.9
20260502224004 21 225 0.0 0.0 0.00 0.00 0.00 55 1016.1
20260502223504 21 225 0.0 0.0 0.00 0.00 0.00 55 1016.2
20260502223004 21 225 0.0 1.6 0.00 0.00 0.00 55 1016.2
20260502222004 21 225 0.0 0.0 0.00 0.00 0.00 55 1016.2
20260502221504 21 210 0.0 0.0 0.00 0.00 0.00 55 1016.5
20260502221004 21 225 0.0 0.0 0.00 0.00 0.00 55 1016.5